Content
SEND FEEDBACK

Daily
Averages
Monthly
Summary
United States of America

YIGO, GUAM


Home > North America > United States > Guam
Elevation: 162 meters     Latitude: 13 32N     Longitude: 144 53E

WEATHER
 
SELECT A DAY
Number of Records: 214,141;   Date Range: 1/1/95 - 10/30/14
 
SHARE

PRINT THIS DATA

[ ← Previous Day ]
WEATHER ALMANAC - 3 JANUARY, 2014
[ Next Day → ]
[ °F ]   °C
Weather ElementAverageHighLow
Temperature27.3 °C29.4 °C (1:54 pm)25 °C (6:54 am)
Dewpoint22.3 °C23.3 °C (1:54 am)20.6 °C (4:54 pm)
Humidity74.5 %90 % (6:54 am)63 % (1:54 pm)
Barometer1011.5 hPa1013.2 hPa (8:54 am)1009.8 hPa (2:54 pm)
Wind Speed21.9 km/h37 km/h (11:46 am)
Wind Gust48.1 km/h (12:54 pm)
Weather ElementAverage
Visibility16.1 km
Wind DirectionENE (72.7 °)

Weather ElementTotal
Precipitation---
Cooling Degree Days8.9 (Base 18.3)
Growing Degree Days17.2 (Base 10)
Averaged from 26 records on 3 January, 2014
WEATHER CONDITIONS BREAKOUT
WIND DIRECTION BREAKOUT
WEATHER BY HOUR - 3 JANUARY, 2014
[ °F ]   °C
Local TimeTemperatureDewpointHumidityBarometerVisibilityWind DirectionWind SpeedGust SpeedPrecipitationEventsConditions
1:54 AM25.6 °C23.3 °C87 %1011.9 hPa16.1 kmENE (60°)20.4 km/hClear
2:54 AM25.6 °C23.3 °C87 %1011.5 hPa16.1 kmENE (60°)20.4 km/hClear
3:54 AM25.6 °C23.3 °C87 %1011.2 hPa16.1 kmENE (60°)20.4 km/hScattered Clouds
4:54 AM25.6 °C23.3 °C87 %1011.5 hPa16.1 kmENE (70°)16.7 km/hPartly Cloudy
5:54 AM25.6 °C23.3 °C87 %1011.9 hPa16.1 kmENE (60°)16.7 km/hClear
6:54 AM25 °C23.3 °C90 %1012.2 hPa16.1 kmNE (50°)13 km/hPartly Cloudy
7:54 AM26.7 °C23.3 °C81 %1012.9 hPa16.1 kmENE (60°)16.7 km/hPartly Cloudy
8:54 AM27.8 °C23.3 °C76 %1013.2 hPa16.1 kmEast (80°)20.4 km/h33.3 km/hPartly Cloudy
9:54 AM27.8 °C23.3 °C76 %1013.2 hPa16.1 kmENE (70°)31.5 km/hPartly Cloudy
10:54 AM28.9 °C22.8 °C69 %1012.5 hPa16.1 kmEast (90°)24.1 km/h35.2 km/hScattered Clouds
11:46 AM29 °C22 °C66 %1012.5 hPa16.1 kmENE (60°)37 km/h46.3 km/hMostly Cloudy
11:54 AM28.3 °C22.8 °C72 %1011.9 hPa16.1 kmEast (80°)25.9 km/h40.7 km/hMostly Cloudy
12:07 PM29 °C23 °C70 %1012.2 hPa16.1 kmENE (70°)29.6 km/h44.4 km/hMostly Cloudy
12:16 PM28 °C23 °C74 %1012.2 hPa16.1 kmEast (80°)31.5 km/h44.4 km/hMostly Cloudy
12:54 PM28.9 °C23.3 °C72 %1010.8 hPa16.1 kmEast (90°)27.8 km/h48.1 km/hMostly Cloudy
1:54 PM29.4 °C21.7 °C63 %1010.2 hPa16.1 kmEast (80°)31.5 km/h46.3 km/hPartly Cloudy
2:54 PM29.4 °C21.7 °C63 %1009.8 hPa16.1 kmEast (80°)24.1 km/h42.6 km/hPartly Cloudy
3:54 PM28.9 °C21.1 °C63 %1009.8 hPa16.1 kmEast (80°)27.8 km/h37 km/hClear
4:54 PM28.3 °C20.6 °C63 %1010.2 hPa16.1 kmEast (80°)27.8 km/h37 km/hPartly Cloudy
5:54 PM26.7 °C21.1 °C71 %1010.5 hPa16.1 kmEast (90°)14.8 km/hPartly Cloudy
6:54 PM26.7 °C21.1 °C71 %1011.2 hPa16.1 kmEast (80°)14.8 km/hScattered Clouds
7:54 PM26.7 °C21.7 °C74 %1011.9 hPa16.1 kmENE (70°)16.7 km/hScattered Clouds
8:54 PM26.7 °C21.1 °C71 %1011.9 hPa16.1 kmEast (80°)13 km/hMostly Cloudy
9:54 PM26.1 °C20.6 °C72 %1011.9 hPa16.1 kmENE (60°)16.7 km/hPartly Cloudy
10:54 PM26.1 °C20.6 °C72 %1011.9 hPa16.1 kmENE (70°)16.7 km/hPartly Cloudy
11:54 PM26.1 °C21.1 °C74 %1011.9 hPa16.1 kmEast (80°)13 km/hPartly Cloudy
Hourly data recorded from PGUM, located 0 kilometers away from Yigo, Guam







STORIES FROM OUR PARTNERS